When you browse on this site, cookies collect data to enhance your experience and personalize the content and advertising you see.
Visit our Privacy Policy to learn more. By continuing to use the site, you agree to this use of cookies and data.
  • In Portugal
  • List of Countries
  • For 7 days
  • Water Temperature
  • Satellite Maps
  • Weather Map
  • Weather Widgets
  • user-avatar
    Login

    Hourly Weather Kufa

    Today, 27 June, Thursday

    Time Temperature Precipitation Wind Pressure Humidity
    00:00 +18°C° 0.1 mm 1 mps 644 mmHg 82%
    01:00 +16°C° 0 mm 1 mps 644 mmHg 80%
    02:00 +16°C° 0 mm 1 mps 644 mmHg 79%
    03:00 +16°C° 0 mm 1 mps 643 mmHg 78%
    04:00 +19°C° 0 mm 1 mps 644 mmHg 75%
    05:00 +20°C° 0 mm 1 mps 644 mmHg 72%
    06:00 +21°C° 0 mm 1 mps 645 mmHg 69%
    07:00 +22°C° 0 mm 1 mps 645 mmHg 65%
    08:00 +23°C° 0 mm 2 mps 645 mmHg 62%
    09:00 +24°C° 0 mm 2 mps 645 mmHg 59%
    10:00 +24°C° 0.5 mm 2 mps 645 mmHg 63%
    11:00 +24°C° 0.5 mm 2 mps 645 mmHg 66%
    12:00 +24°C° 0.5 mm 2 mps 644 mmHg 70%
    13:00 +24°C° 1.2 mm 2 mps 644 mmHg 71%
    14:00 +24°C° 1.2 mm 2 mps 644 mmHg 72%
    15:00 +23°C° 1.2 mm 1 mps 643 mmHg 73%
    16:00 +23°C° 0.6 mm 1 mps 643 mmHg 73%
    17:00 +23°C° 0.6 mm 1 mps 643 mmHg 74%
    18:00 +23°C° 0.6 mm 1 mps 642 mmHg 75%
    19:00 +21°C° 0.2 mm 1 mps 642 mmHg 78%
    20:00 +20°C° 0.2 mm 1 mps 641 mmHg 81%
    21:00 +18°C° 0.2 mm 1 mps 641 mmHg 85%
    22:00 +18°C° 0 mm 1 mps 641 mmHg 85%
    23:00 +16°C° 0 mm 1 mps 640 mmHg 86%

    Tomorrow, 28 June, Friday

    Time Temperature Precipitation Wind Pressure Humidity
    00:00 +16°C° 0 mm 1 mps 640 mmHg 86%
    01:00 +16°C° 0 mm 1 mps 640 mmHg 86%
    02:00 +16°C° 0 mm 1 mps 639 mmHg 85%
    03:00 +15°C° 0 mm 1 mps 639 mmHg 84%
    04:00 +18°C° 0 mm 1 mps 639 mmHg 82%
    05:00 +19°C° 0 mm 1 mps 640 mmHg 79%
    06:00 +20°C° 0 mm 1 mps 640 mmHg 77%
    07:00 +21°C° 0 mm 1 mps 640 mmHg 71%
    08:00 +23°C° 0 mm 1 mps 640 mmHg 66%
    09:00 +24°C° 0 mm 2 mps 641 mmHg 60%
    10:00 +25°C° 0.6 mm 2 mps 640 mmHg 60%
    11:00 +25°C° 0.6 mm 2 mps 640 mmHg 60%
    12:00 +26°C° 0.6 mm 2 mps 640 mmHg 60%
    13:00 +26°C° 1.2 mm 2 mps 640 mmHg 60%
    14:00 +26°C° 1.2 mm 2 mps 639 mmHg 60%
    15:00 +26°C° 1.2 mm 2 mps 639 mmHg 60%
    16:00 +25°C° 0.5 mm 2 mps 638 mmHg 63%
    17:00 +25°C° 0.5 mm 2 mps 638 mmHg 66%
    18:00 +24°C° 0.5 mm 1 mps 637 mmHg 70%
    19:00 +21°C° 0 mm 2 mps 637 mmHg 72%
    20:00 +20°C° 0 mm 2 mps 637 mmHg 74%
    21:00 +18°C° 0 mm 2 mps 637 mmHg 77%
    22:00 +18°C° 0 mm 2 mps 637 mmHg 77%
    23:00 +18°C° 0 mm 2 mps 636 mmHg 77%

    Day after tomorrow, 29 June, Saturday

    Time Temperature Precipitation Wind Pressure Humidity
    00:00 +18°C° 0 mm 2 mps 636 mmHg 77%
    01:00 +18°C° 0.1 mm 2 mps 636 mmHg 78%
    02:00 +18°C° 0.1 mm 2 mps 637 mmHg 78%
    03:00 +19°C° 0.1 mm 1 mps 637 mmHg 78%
    04:00 +20°C° 0.4 mm 1 mps 637 mmHg 79%
    05:00 +20°C° 0.4 mm 1 mps 637 mmHg 80%
    06:00 +20°C° 0.4 mm 1 mps 637 mmHg 80%
    07:00 +21°C° 0.4 mm 1 mps 638 mmHg 76%
    08:00 +23°C° 0.4 mm 2 mps 638 mmHg 72%
    09:00 +24°C° 0.4 mm 2 mps 638 mmHg 69%
    10:00 +24°C° 1.7 mm 2 mps 638 mmHg 70%
    11:00 +24°C° 1.7 mm 3 mps 638 mmHg 72%
    12:00 +24°C° 1.7 mm 3 mps 638 mmHg 73%
    13:00 +24°C° 2.2 mm 3 mps 638 mmHg 75%
    14:00 +24°C° 2.2 mm 2 mps 638 mmHg 77%
    15:00 +23°C° 2.2 mm 2 mps 637 mmHg 78%
    16:00 +23°C° 1.6 mm 2 mps 637 mmHg 79%
    17:00 +23°C° 1.6 mm 2 mps 637 mmHg 79%
    18:00 +22°C° 1.6 mm 1 mps 637 mmHg 80%
    19:00 +21°C° 1.2 mm 1 mps 637 mmHg 85%
    20:00 +20°C° 1.2 mm 1 mps 637 mmHg 90%
    21:00 +19°C° 1.2 mm 1 mps 638 mmHg 95%
    22:00 +19°C° 2.8 mm 1 mps 638 mmHg 95%
    23:00 +19°C° 2.8 mm 1 mps 638 mmHg 95%

    30 June, Sunday

    Time Temperature Precipitation Wind Pressure Humidity
    00:00 +19°C° 2.8 mm 1 mps 638 mmHg 95%
    01:00 +18°C° 0.4 mm 1 mps 638 mmHg 95%
    02:00 +18°C° 0.4 mm 1 mps 638 mmHg 95%
    03:00 +16°C° 0.4 mm 1 mps 638 mmHg 95%
    04:00 +16°C° 0.3 mm 1 mps 638 mmHg 94%
    05:00 +18°C° 0.3 mm 1 mps 638 mmHg 94%
    06:00 +17°C° 0.3 mm 2 mps 638 mmHg 93%
    07:00 +17°C° 0.6 mm 2 mps 639 mmHg 92%
    08:00 +17°C° 0.6 mm 2 mps 639 mmHg 91%
    09:00 +17°C° 0.6 mm 2 mps 639 mmHg 90%
    10:00 +17°C° 0.6 mm 2 mps 639 mmHg 90%
    11:00 +17°C° 0.6 mm 2 mps 639 mmHg 89%
    12:00 +18°C° 0.6 mm 3 mps 639 mmHg 89%
    13:00 +17°C° 0.9 mm 2 mps 639 mmHg 90%
    14:00 +17°C° 0.9 mm 2 mps 639 mmHg 92%
    15:00 +17°C° 0.9 mm 2 mps 638 mmHg 93%
    16:00 +16°C° 1 mm 2 mps 638 mmHg 95%
    17:00 +16°C° 1 mm 2 mps 638 mmHg 96%
    18:00 +16°C° 1 mm 2 mps 639 mmHg 97%
    19:00 +16°C° 2.5 mm 2 mps 639 mmHg 98%
    20:00 +14°C° 2.5 mm 3 mps 639 mmHg 98%
    21:00 +14°C° 2.5 mm 3 mps 639 mmHg 98%
    22:00 +14°C° 1.9 mm 3 mps 640 mmHg 98%
    23:00 +15°C° 1.9 mm 2 mps 640 mmHg 98%

    1 July, Monday

    Time Temperature Precipitation Wind Pressure Humidity
    00:00 +14°C° 1.9 mm 2 mps 640 mmHg 98%
    01:00 +14°C° 2.6 mm 2 mps 640 mmHg 98%
    02:00 +14°C° 2.6 mm 2 mps 640 mmHg 98%
    03:00 +14°C° 2.6 mm 2 mps 640 mmHg 98%
    04:00 +13°C° 2.1 mm 2 mps 640 mmHg 98%
    05:00 +13°C° 2.1 mm 2 mps 640 mmHg 97%
    06:00 +12°C° 2.1 mm 2 mps 640 mmHg 97%
    07:00 +12°C° 2.9 mm 2 mps 640 mmHg 97%
    08:00 +11°C° 2.9 mm 1 mps 640 mmHg 97%
    09:00 +11°C° 2.9 mm 1 mps 639 mmHg 97%
    10:00 +10°C° 3.6 mm 1 mps 639 mmHg 97%
    11:00 +10°C° 3.6 mm 1 mps 639 mmHg 97%
    12:00 +10°C° 3.6 mm 1 mps 640 mmHg 96%
    13:00 +11°C° 0.8 mm 1 mps 640 mmHg 93%
    14:00 +12°C° 0.8 mm 2 mps 640 mmHg 91%
    15:00 +13°C° 0.8 mm 2 mps 640 mmHg 88%
    16:00 +13°C° 0.1 mm 2 mps 640 mmHg 90%
    17:00 +12°C° 0.1 mm 2 mps 640 mmHg 91%
    18:00 +12°C° 0.1 mm 1 mps 640 mmHg 93%
    19:00 +11°C° 0.1 mm 1 mps 641 mmHg 94%
    20:00 +11°C° 0.1 mm 1 mps 641 mmHg 95%
    21:00 +10°C° 0.1 mm 1 mps 641 mmHg 96%
    22:00 +10°C° 0.1 mm 1 mps 641 mmHg 94%
    23:00 +10°C° 0.1 mm 1 mps 641 mmHg 92%

    2 July, Tuesday

    Time Temperature Precipitation Wind Pressure Humidity
    00:00 +9°C° 0.1 mm 1 mps 641 mmHg 90%
    01:00 +9°C° 0 mm 1 mps 641 mmHg 90%
    02:00 +8°C° 0 mm 1 mps 641 mmHg 89%
    03:00 +8°C° 0 mm 1 mps 641 mmHg 88%
    04:00 +9°C° 0 mm 1 mps 641 mmHg 86%
    05:00 +9°C° 0 mm 1 mps 642 mmHg 84%
    06:00 +10°C° 0 mm 1 mps 642 mmHg 82%
    07:00 +12°C° 0 mm 1 mps 643 mmHg 78%
    08:00 +13°C° 0 mm 1 mps 643 mmHg 74%
    09:00 +14°C° 0 mm 2 mps 644 mmHg 69%
    10:00 +16°C° 0 mm 2 mps 644 mmHg 67%
    11:00 +17°C° 0 mm 2 mps 644 mmHg 64%
    12:00 +18°C° 0 mm 2 mps 644 mmHg 61%
    13:00 +18°C° 0 mm 2 mps 644 mmHg 60%
    14:00 +19°C° 0 mm 2 mps 644 mmHg 59%
    15:00 +19°C° 0 mm 2 mps 644 mmHg 58%
    16:00 +19°C° 0 mm 1 mps 644 mmHg 64%
    17:00 +19°C° 0 mm 1 mps 643 mmHg 70%
    18:00 +18°C° 0 mm 1 mps 643 mmHg 76%
    19:00 +16°C° 0 mm 1 mps 643 mmHg 75%
    20:00 +14°C° 0 mm 1 mps 642 mmHg 74%
    21:00 +12°C° 0 mm 1 mps 642 mmHg 74%
    22:00 +12°C° 0 mm 1 mps 642 mmHg 73%
    23:00 +12°C° 0 mm 2 mps 642 mmHg 72%
    Show more